Location: Baumgarten
(49.0970°N, 12.7493°E)
Time: 18:05:20
(UTC+00:00)

Cosmos 2322 Rocket - Pass Details

Date: 05 July 2020
Orbit: 832 x 851 km, 71.0° (Epoch: 12 August)

Event Time Altitude Azimuth Distance (km) Brightness Sun altitude
Rises 19:53:55 0° 213° (SSW) 3,366 5.2 -5.6°
Reaches altitude 10° 19:56:21 10° 216° (SW) 2,436 4.5 -5.9°
Maximum altitude 20:01:55 72° 300° (WNW) 880 2.6 -6.5°
Drops below altitude 10° 20:07:33 10° 25° (NNE) 2,457 4.9 -7.1°
Sets 20:10:01 0° 28° (NNE) 3,397 5.6 -7.4°
